Weather History for KLVN - October, 2011

Change the Weather History Date:

Tuesday, October 18, 2011

  Actual Average Record
Temperature  
Mean Temperature 40 °F -  
Max Temperature 42 °F 55 °F 87 °F (1950)
Min Temperature 37 °F 36 °F 16 °F (1972)
Degree Days  
Heating Degree Days 26    
Moisture  
Dew Point 32 °F    
Average Humidity 70    
Maximum Humidity 81    
Minimum Humidity 61    
Precipitation  
Precipitation 0.00 in - - ()
Sea Level Pressure  
Sea Level Pressure 29.96 in    
Wind  
Wind Speed 9 mph (NW)    
Max Wind Speed 16 mph    
Max Gust Speed 23 mph    
Visibility 10 miles    
Events      
Averages and records for this station are not official NWS values.
T = Trace of Precipitation, MM = Missing Value Source: NWS Daily Summary

Daily Weather History Graph

Daily Weather History Graph

Search for Another Location

Airport or City:

Trip Planner

Search our weather history database for the weather conditions in past years. The results will help you decide how hot, cold, wet, or windy it might be!

Date:

Astronomy

Oct. 18, 2011 Rise Set
Actual Time 7:31 AM CDT 6:23 PM CDT
Civil Twilight 7:02 AM CDT 6:53 PM CDT
Nautical Twilight 6:28 AM CDT 7:27 PM CDT
Astronomical Twilight 5:54 AM CDT 8:00 PM CDT
Moon 10:57 PM CDT (10/18) 1:31 PM CDT (10/18)
Length of Visible Light 11h 51m
Length of Day
10h 52m
Waning Gibbous, 64% of the Moon is Illuminated
Oct 18
Waning Gibbous
Oct 19
Last Quarter
Oct 26
New
Nov 2
First Quarter
Nov 10
Full

Hourly Weather History & Observations

Time (CDT) Temp. Windchill Dew Point Humidity Pressure Visibility Wind Dir Wind Speed Gust Speed Precip Events Conditions
12:13 AM 39.2 °F 33.6 °F 30.2 °F 70% 29.88 in 10.0 mi WNW 8.1 mph - N/A   Clear
12:33 AM 37.4 °F 32.1 °F 30.2 °F 75% 29.87 in 10.0 mi West 6.9 mph - N/A   Clear
1:13 AM 39.2 °F 34.2 °F 30.2 °F 70% 29.87 in 10.0 mi West 6.9 mph - N/A   Clear
1:33 AM 37.4 °F 31.4 °F 30.2 °F 75% 29.86 in 10.0 mi West 8.1 mph - N/A   Clear
1:52 AM 37.4 °F 32.8 °F 28.4 °F 70% 29.86 in 10.0 mi WNW 5.8 mph - N/A   Clear
2:13 AM 37.4 °F 32.1 °F 28.4 °F 70% 29.86 in 10.0 mi West 6.9 mph - N/A   Clear
2:33 AM 37.4 °F 32.1 °F 28.4 °F 70% 29.86 in 10.0 mi West 6.9 mph - N/A   Clear
2:52 AM 37.4 °F 32.8 °F 28.4 °F 70% 29.87 in 10.0 mi WNW 5.8 mph - N/A   Clear
3:13 AM 37.4 °F 32.1 °F 30.2 °F 75% 29.86 in 10.0 mi NW 6.9 mph - N/A   Clear
3:33 AM 37.4 °F 30.8 °F 30.2 °F 75% 29.87 in 10.0 mi NW 9.2 mph - N/A   Scattered Clouds
3:52 AM 39.2 °F 35.0 °F 32.0 °F 75% 29.87 in 10.0 mi WNW 5.8 mph - N/A   Mostly Cloudy
4:13 AM 39.2 °F 33.6 °F 32.0 °F 75% 29.87 in 10.0 mi NW 8.1 mph - N/A   Overcast
4:32 AM 39.2 °F 33.0 °F 32.0 °F 75% 29.88 in 10.0 mi NW 9.2 mph - N/A   Overcast
4:52 AM 41.0 °F 35.2 °F 33.8 °F 76% 29.88 in 10.0 mi WNW 9.2 mph - N/A   Overcast
5:13 AM 41.0 °F 35.8 °F 33.8 °F 76% 29.90 in 10.0 mi NW 8.1 mph - N/A   Overcast
5:32 AM 41.0 °F 36.4 °F 33.8 °F 76% 29.91 in 10.0 mi NW 6.9 mph - N/A   Overcast
5:53 AM 39.2 °F 37.0 °F 33.8 °F 81% 29.92 in 10.0 mi West 3.5 mph - N/A   Overcast
6:13 AM 39.2 °F 35.9 °F 33.8 °F 81% 29.93 in 10.0 mi West 4.6 mph - N/A   Overcast
6:32 AM 39.2 °F 35.0 °F 33.8 °F 81% 29.93 in 10.0 mi West 5.8 mph - N/A   Overcast
7:13 AM 41.0 °F 34.7 °F 33.8 °F 76% 29.93 in 10.0 mi NNW 10.4 mph - N/A   Overcast
7:32 AM 41.0 °F 35.2 °F 33.8 °F 76% 29.94 in 10.0 mi NW 9.2 mph - N/A   Overcast
7:53 AM 41.0 °F 34.7 °F 33.8 °F 76% 29.95 in 10.0 mi NNW 10.4 mph - N/A   Overcast
8:13 AM 41.0 °F 35.2 °F 33.8 °F 76% 29.95 in 10.0 mi NW 9.2 mph - N/A   Overcast
8:32 AM 41.0 °F 33.1 °F 33.8 °F 76% 29.96 in 10.0 mi NNW 15.0 mph - N/A   Overcast
8:53 AM 41.0 °F 34.7 °F 33.8 °F 76% 29.97 in 10.0 mi NW 10.4 mph - N/A   Overcast
9:13 AM 41.0 °F 33.9 °F 33.8 °F 76% 29.97 in 10.0 mi NW 12.7 mph - N/A   Overcast
9:32 AM 39.2 °F 30.8 °F 33.8 °F 81% 29.97 in 10.0 mi NW 15.0 mph - N/A   Light Drizzle
9:53 AM 41.0 °F 34.7 °F 33.8 °F 76% 29.98 in 10.0 mi NNW 10.4 mph 20.7 mph N/A   Light Drizzle
10:13 AM 42.8 °F 35.4 °F 33.8 °F 70% 29.98 in 10.0 mi NW 15.0 mph 20.7 mph N/A   Overcast
10:33 AM 42.8 °F 36.2 °F 32.0 °F 66% 29.98 in 10.0 mi NNW 12.7 mph - N/A   Overcast
10:53 AM 42.8 °F - 32.0 °F 66% 29.98 in 10.0 mi North - - N/A   Overcast
11:12 AM 42.8 °F 36.6 °F 32.0 °F 66% 29.98 in 10.0 mi NNW 11.5 mph 23.0 mph N/A   Overcast
11:53 AM 42.8 °F 36.6 °F 33.8 °F 70% 29.99 in 10.0 mi NW 11.5 mph - N/A   Overcast
12:12 PM 42.8 °F 35.4 °F 33.8 °F 70% 29.99 in 10.0 mi NW 15.0 mph 21.9 mph N/A   Overcast
12:32 PM 42.8 °F 36.2 °F 33.8 °F 70% 29.99 in 10.0 mi NNW 12.7 mph 16.1 mph N/A   Overcast
12:53 PM 42.8 °F 37.5 °F 35.6 °F 76% 29.99 in 10.0 mi NNW 9.2 mph - N/A   Overcast
1:12 PM 42.8 °F 36.2 °F 35.6 °F 76% 29.98 in 10.0 mi NNW 12.7 mph 16.1 mph N/A   Overcast
1:32 PM 42.8 °F 35.8 °F 33.8 °F 70% 29.98 in 10.0 mi NNW 13.8 mph 20.7 mph N/A   Overcast
1:53 PM 42.8 °F 35.4 °F 33.8 °F 70% 29.98 in 10.0 mi NNW 15.0 mph 19.6 mph N/A   Overcast
2:13 PM 42.8 °F 35.4 °F 33.8 °F 70% 29.98 in 10.0 mi NW 15.0 mph - N/A   Overcast
2:32 PM 42.8 °F 36.2 °F 32.0 °F 66% 29.98 in 10.0 mi NNW 12.7 mph 19.6 mph N/A   Overcast
2:52 PM 42.8 °F 36.6 °F 32.0 °F 66% 29.98 in 10.0 mi NNW 11.5 mph - N/A   Overcast
3:12 PM 42.8 °F 35.8 °F 30.2 °F 61% 29.98 in 10.0 mi NNW 13.8 mph - N/A   Overcast
3:33 PM 42.8 °F 36.2 °F 30.2 °F 61% 29.98 in 10.0 mi NNW 12.7 mph - N/A   Overcast
3:53 PM 42.8 °F 35.8 °F 30.2 °F 61% 29.98 in 10.0 mi NNW 13.8 mph 19.6 mph N/A   Overcast
4:12 PM 42.8 °F 36.6 °F 30.2 °F 61% 29.98 in 10.0 mi NW 11.5 mph - N/A   Overcast
4:33 PM 42.8 °F 35.4 °F 30.2 °F 61% 29.98 in 10.0 mi NW 15.0 mph - N/A   Overcast
4:53 PM 42.8 °F 35.8 °F 30.2 °F 61% 29.99 in 10.0 mi NW 13.8 mph 17.3 mph N/A   Overcast
5:12 PM 42.8 °F 36.6 °F 30.2 °F 61% 30.00 in 10.0 mi NNW 11.5 mph 16.1 mph N/A   Overcast
5:33 PM 42.8 °F 36.2 °F 30.2 °F 61% 30.00 in 10.0 mi NW 12.7 mph 16.1 mph N/A   Overcast
5:53 PM 42.8 °F 38.0 °F 30.2 °F 61% 30.01 in 10.0 mi NW 8.1 mph - N/A   Overcast
6:12 PM 42.8 °F 36.6 °F 30.2 °F 61% 30.01 in 10.0 mi NW 11.5 mph 16.1 mph N/A   Overcast
6:33 PM 42.8 °F 35.8 °F 30.2 °F 61% 30.01 in 10.0 mi NW 13.8 mph - N/A   Overcast
6:53 PM 42.8 °F 35.8 °F 30.2 °F 61% 30.02 in 10.0 mi NW 13.8 mph - N/A   Overcast
7:12 PM 42.8 °F 35.8 °F 30.2 °F 61% 30.02 in 10.0 mi NW 13.8 mph 18.4 mph N/A   Overcast
7:33 PM 41.0 °F 34.3 °F 30.2 °F 65% 30.02 in 10.0 mi NW 11.5 mph - N/A   Overcast
7:52 PM 41.0 °F 32.8 °F 30.2 °F 65% 30.03 in 10.0 mi NNW 16.1 mph - N/A   Overcast
8:13 PM 41.0 °F 34.3 °F 30.2 °F 65% 30.03 in 10.0 mi NNW 11.5 mph - N/A   Overcast
8:32 PM 41.0 °F 35.2 °F 30.2 °F 65% 30.04 in 10.0 mi NNW 9.2 mph 19.6 mph N/A   Overcast
8:52 PM 41.0 °F 34.7 °F 30.2 °F 65% 30.04 in 10.0 mi NNW 10.4 mph - N/A   Overcast
9:13 PM 41.0 °F 36.4 °F 30.2 °F 65% 30.04 in 10.0 mi NNW 6.9 mph - N/A   Overcast
9:32 PM 41.0 °F 34.7 °F 30.2 °F 65% 30.04 in 10.0 mi NNW 10.4 mph - N/A   Overcast
9:52 PM 41.0 °F 34.7 °F 30.2 °F 65% 30.04 in 10.0 mi NNW 10.4 mph 17.3 mph N/A   Overcast
10:13 PM 39.2 °F 33.6 °F 30.2 °F 70% 30.04 in 10.0 mi NNW 8.1 mph 17.3 mph N/A   Overcast
10:33 PM 39.2 °F 32.5 °F 30.2 °F 70% 30.04 in 10.0 mi NNW 10.4 mph 16.1 mph N/A   Overcast
10:52 PM 39.2 °F 33.6 °F 30.2 °F 70% 30.04 in 10.0 mi North 8.1 mph - N/A   Overcast
11:13 PM 39.2 °F 33.0 °F 30.2 °F 70% 30.04 in 10.0 mi North 9.2 mph - N/A   Overcast
11:32 PM 39.2 °F 33.0 °F 30.2 °F 70% 30.03 in 10.0 mi North 9.2 mph - N/A   Overcast
11:52 PM 39.2 °F 35.0 °F 30.2 °F 70% 30.03 in 10.0 mi North 5.8 mph - N/A   Overcast